Regional Weather Roundup
Issued by NWS Northern Indiana

Home | Current Version | Previous Version | Text Only | Print | Product List | Glossary Off
Versions: 1 2 3 4 5 6 7 8 9 10 11 12 13 14 15 16 17 18 19 20 21 22 23 24 25 26 27 28 29 30 31 32 33 34 35 36 37 38 39 40 41 42 43 44 45 46 47 48 49 50

000
ASUS43 KIWX 160200
RWRIWX

KIWX WEATHER ROUNDUP
NATIONAL WEATHER SERVICE NORTHERN INDIANA
1000 PM EDT MON SEP 15 2014

NOTE: "FAIR" INDICATES FEW OR NO CLOUDS BELOW 12,000 FEET WITH NO
SIGNIFICANT WEATHER AND/OR OBSTRUCTIONS TO VISIBILITY.

* THESE STATIONS ARE NOT UNDER NWS QUALITY CONTROL. THEY ALSO MAY NOT
  REPORT WEATHER SUCH AS PRECIPITATION OR FOG.

INZ001>027-160300-
NORTHERN INDIANA

CITY           SKY/WX    TMP DP  RH WIND       PRES   REMARKS
GARY*          CLOUDY    57  55  94 CALM      30.13R FOG
VALPARAISO     CLOUDY    54  53  97 CALM      30.13R FOG
SOUTH BEND     CLOUDY    55  53  93 W5        30.13R
GOSHEN         CLOUDY    55  53  93 SW3       30.11S FOG
ANGOLA*        CLOUDY    54  43  66 CALM      30.11R
FORT WAYNE     LGT RAIN  55  53  93 NW3       30.13R FOG

$$
INZ028>050-160300-
CENTRAL INDIANA

CITY           SKY/WX    TMP DP  RH WIND       PRES   REMARKS
LAFAYETTE      CLOUDY    56  55  97 CALM      30.12S
KOKOMO*        CLOUDY    55  54  94 N5        30.13R
MUNCIE*        LGT RAIN  56  54  93 NW6       30.12R FOG
INDIANAPOLIS   LGT RAIN  57  55  93 N5        30.11R FOG

$$
MIZ043>046-050>051-056>058-064>065-071>073-077>080-160300-
SOUTHWEST LOWER MICHIGAN

CITY           SKY/WX    TMP DP  RH WIND       PRES   REMARKS
BATTLE CREEK   CLOUDY    54  51  90 N5        30.11R
BENTON HARBOR  PTCLDY    54  51  90 VRB3      30.12R
COLDWATER*     CLOUDY    55  54  96 W3        30.11R
HILLSDALE*     MOCLDY    54  54 100 CALM      30.10R
HOLLAND        MOCLDY    55  52  89 VRB3      30.13R
GRAND RAPIDS   MOCLDY    53  53 100 N3        30.12R
KALAMAZOO      MOCLDY    54  51  90 N3        30.12R
STURGIS*       CLOUDY    54  54 100 CALM      30.10S
THREE RIVERS*  CLOUDY    55  54  95 CALM      30.11S

$$
OHZ001>008-015>018-024>025-160300-
NORTHWEST OHIO

CITY           SKY/WX    TMP DP  RH WIND       PRES   REMARKS
DEFIANCE       LGT RAIN  55  53  93 CALM      30.12R
FINDLAY        LGT RAIN  56  53  90 NW5       30.10R FOG
TOLEDO EXPRESS CLOUDY    53  52  96 W3        30.09S
TOLEDO METCALF LGT RAIN  55  52  89 NW5       30.10S
LIMA           LGT RAIN  56  54  93 N5        30.11R FOG

$$
&&


USA.gov is the U.S. government's official web portal to all federal, state and local government web resources and services.